Regional Weather Roundup
Issued by NWS

Home | Current Version | Previous Version | Graphics & Text | Print | Product List | Glossary Off
Versions: 1 2 3 4 5 6 7 8 9 10 11 12 13 14 15 16 17 18 19 20 21 22 23 24 25 26 27 28 29 30 31 32 33 34 35 36 37 38 39 40 41 42 43 44 45 46 47 48 49 50

000
ASUS43 KLSX 272010
RWRMO

WEATHER SUMMARY FOR MISSOURI
NATIONAL WEATHER SERVICE SPRINGFIELD MO
300 PM CDT TUE SEP 27 2016

NOTE: "FAIR" INDICATES FEW OR NO CLOUDS BELOW 12,000 FEET WITH NO
       SIGNIFICANT WEATHER AND/OR OBSTRUCTIONS TO VISIBILITY.
       CURRENT SKY AND/OR WEATHER CONDITIONS ARE NOT AVAILABLE FOR
       CHILLICOTHE AND FARMINGTON.

MOZ001>031-035>038-043-044-053-054-272100-
...NORTHERN AND WESTERN MISSOURI...

CITY           SKY/WX    TMP DP  RH WIND       PRES   REMARKS
KANSAS CTY INT SUNNY     77  53  43 W8        29.93F
KANSAS C DTWN  SUNNY     80  52  37 SW8       29.92F
LEE`S SUMMIT   SUNNY     78  49  35 W9        29.94F
ST JOSEPH      SUNNY     81  46  29 W10       29.92F
CHILLICOTHE      N/A     79  49  34 VRB3      29.91F
KIRKSVILLE     SUNNY     76  44  32 W10G20    29.90F

$$
MOZ066>068-077>081-088>096-101>105-272100-
...SOUTHWEST MISSOURI...

CITY           SKY/WX    TMP DP  RH WIND       PRES   REMARKS
SPRINGFIELD    SUNNY     80  42  25 W15       29.99F
JOPLIN         SUNNY     79  49  34 SW15      30.00F
BRANSON        MOSUNNY   75  46  35 NW6       30.03F

$$
MOZ032>034-039>042-045>050-055>058-069>072-272100-
...CENTRAL MISSOURI...

CITY           SKY/WX    TMP DP  RH WIND       PRES   REMARKS
COLUMBIA       SUNNY     78  49  35 W10       29.91F
JEFFERSON CITY SUNNY     79  47  32 W10G20    29.91F
ROLLA          SUNNY     77  48  35 SW12G20   29.94F
SEDALIA        SUNNY     81  48  31 W12G18    29.93F
WHITEMAN AFB   SUNNY     80  51  36 W10       29.91F
OSAGE BEACH    SUNNY     78  49  35 SW9       29.95F

$$
MOZ051-052-059>065-272100-
...EAST CENTRAL MISSOURI...

CITY           SKY/WX    TMP DP  RH WIND       PRES   REMARKS
ST LOUIS INTL  MOSUNNY   81  44  27 W18       29.90F
SPIRIT OF STL  SUNNY     79  49  34 W13       29.88F
ST CHARLES     SUNNY     80  45  28 W16       29.87F

$$
MOZ072>076-082>087-097>100-106>115-272100-
...SOUTH CENTRAL AND SOUTHEAST MISSOURI...

CITY           SKY/WX    TMP DP  RH WIND       PRES   REMARKS
CAPE GIRARDEAU SUNNY     79  48  33 W12       29.94F
FARMINGTON     SUNNY     76  49  38 W8G16     29.96F
POPLAR BLUFF     N/A     79  47  32 VRB3      29.96F
WEST PLAINS    SUNNY     77  48  35 VRB5      30.02F

$$



USA.gov is the U.S. government's official web portal to all federal, state and local government web resources and services.